KF0ZH Weather Reports


Display with metric or nautical units.
time (UTC)temp
F
wind
direction
speed
MPH
gust
MPH
rain 1hr
in
rain 24hr
in
rain mn
in
humidity
%
barometer
mb
20260503211602 70 326 0.0 0.0 0.00 0.00 0.00 37 1003.6
20260503211103 70 329 0.0 8.0 0.00 0.00 0.00 36 1003.7
20260503210603 69 295 7.0 8.0 0.00 0.00 0.00 38 1003.7
20260503205103 69 313 9.0 14.0 0.00 0.00 0.00 39 1003.7
20260503204603 69 333 9.0 14.0 0.00 0.00 0.00 37 1003.9
20260503204102 69 300 8.0 9.0 0.00 0.00 0.00 39 1003.9
20260503202102 69 344 0.0 8.0 0.00 0.00 0.00 39 1004.2
20260503201602 68 326 8.0 11.0 0.00 0.00 0.00 40 1004.2
20260503201102 68 1 7.0 14.0 0.00 0.00 0.00 39 1004.4
20260503195602 69 337 4.0 10.0 0.00 0.00 0.00 39 1004.6
20260503195102 69 288 9.0 10.0 0.00 0.00 0.00 39 1004.7
20260503194602 68 340 3.0 17.0 0.00 0.00 0.00 39 1004.7
20260503193609 68 327 5.0 8.0 0.00 0.00 0.00 40 1004.7
20260503193102 68 341 4.0 18.0 0.00 0.00 0.00 39 1004.8
20260503192603 68 315 5.0 11.0 0.00 0.00 0.00 39 1004.8
20260503192102 68 272 6.0 9.0 0.00 0.00 0.00 40 1004.8
20260503191102 69 270 5.0 14.0 0.00 0.00 0.00 37 1004.8
20260503190602 69 333 9.0 9.0 0.00 0.00 0.00 39 1004.7
20260503185602 68 345 0.0 9.0 0.00 0.00 0.00 40 1004.8
20260503184602 68 300 5.0 18.0 0.00 0.00 0.00 41 1004.9
20260503184102 68 300 9.0 12.0 0.00 0.00 0.00 43 1004.9
20260503183603 68 316 11.0 11.0 0.00 0.00 0.00 43 1004.9
20260503183102 67 357 7.0 9.0 0.00 0.00 0.00 44 1005.0
20260503182103 67 315 8.0 12.0 0.00 0.00 0.00 44 1005.0
20260503181706 67 312 6.0 6.0 0.00 0.00 0.00 47 1005.1
20260503181602 67 312 6.0 6.0 0.00 0.00 0.00 47 1005.1
20260503181102 66 1 7.0 18.0 0.00 0.00 0.00 44 1005.2
20260503180603 66 336 17.0 19.0 0.00 0.00 0.00 43 1005.2
20260503175103 66 327 7.0 12.0 0.00 0.00 0.00 45 1005.2
20260503174602 66 270 3.0 14.0 0.00 0.00 0.00 47 1005.2
20260503174102 66 291 9.0 13.0 0.00 0.00 0.00 46 1005.3
20260503173105 66 298 4.0 10.0 0.00 0.00 0.00 46 1005.3
20260503172602 66 322 5.0 12.0 0.00 0.00 0.00 48 1005.3
20260503172102 66 292 0.0 7.0 0.00 0.00 0.00 48 1005.4
20260503171603 65 299 4.0 11.0 0.00 0.00 0.00 49 1005.4
20260503170602 66 285 18.0 18.0 0.00 0.00 0.00 48 1005.4
20260503131103 55 340 5.0 9.0 0.00 0.10 0.00 64 1004.7
20260503130603 55 347 0.0 3.0 0.00 0.10 0.00 64 1004.6
20260503120202 52 246 0.0 0.0 0.00 0.10 0.00 67 1003.6
20260503110602 52 167 0.0 0.0 0.00 0.10 0.00 64 1002.9
20260503090133 55 199 0.0 1.0 0.00 0.10 0.00 58 1003.7
20260503081150 57 171 5.0 7.0 0.00 0.10 0.00 55 1003.7
20260503081103 57 171 5.0 7.0 0.00 0.10 0.00 55 1003.7
20260503072602 58 219 5.0 11.0 0.00 0.10 0.00 56 1004.2
20260503071603 59 229 5.0 13.0 0.00 0.10 0.00 56 1004.5
20260503070603 59 164 4.0 9.0 0.00 0.10 0.00 56 1004.7
20260503060103 60 230 2.0 8.0 0.00 0.10 0.00 59 1005.8
20260503055103 60 208 9.0 11.0 0.00 0.10 0.00 57 1006.1
20260503054602 59 232 7.0 16.0 0.00 0.10 0.00 56 1006.2
20260503054104 59 232 11.0 11.0 0.00 0.10 0.00 56 1006.3
20260503052602 57 216 0.0 0.0 0.00 0.10 0.00 56 1006.3
20260503052102 57 184 0.0 5.0 0.00 0.10 0.00 57 1006.4
20260503051603 57 161 3.0 4.0 0.00 0.10 0.00 57 1006.4
20260503051103 57 215 0.0 4.0 0.00 0.10 0.00 57 1006.5
20260503045602 57 170 0.0 0.0 0.00 0.10 0.10 57 1006.4
20260503045103 58 195 0.0 0.0 0.00 0.10 0.10 56 1006.4
20260503044605 57 174 5.0 7.0 0.00 0.10 0.10 56 1006.2
20260503043603 57 177 5.0 8.0 0.00 0.10 0.10 55 1006.5
20260503043104 58 208 5.0 7.0 0.00 0.10 0.10 55 1006.5
20260503042602 58 149 3.0 5.0 0.00 0.10 0.10 55 1006.6
20260503042104 58 188 0.0 5.0 0.00 0.10 0.10 55 1006.7
20260503035602 59 180 0.0 7.0 0.00 0.10 0.10 54 1007.0
20260503034602 59 182 0.0 6.0 0.00 0.10 0.10 53 1007.1
20260503034104 59 229 0.0 4.0 0.00 0.10 0.10 53 1007.3
20260503033102 60 160 0.0 0.0 0.00 0.10 0.10 52 1007.4
20260503031604 60 163 0.0 4.0 0.00 0.10 0.10 51 1007.7
20260503031104 61 191 0.0 0.0 0.00 0.10 0.10 51 1007.7
20260503030602 61 232 0.0 3.0 0.00 0.10 0.10 50 1007.9
20260503025606 62 164 0.0 0.0 0.00 0.10 0.10 50 1008.0
20260503025102 62 205 0.0 0.0 0.00 0.10 0.10 49 1008.2
20260503024602 62 189 0.0 0.0 0.00 0.10 0.10 48 1008.2
20260503024102 62 189 0.0 9.0 0.00 0.10 0.10 48 1008.3
20260503023602 63 196 4.0 9.0 0.00 0.10 0.10 48 1008.5
20260503023102 62 271 0.0 7.0 0.00 0.10 0.10 48 1008.6
20260503022603 62 229 7.0 7.0 0.00 0.10 0.10 49 1008.8
20260503022102 62 212 0.0 0.0 0.00 0.10 0.10 50 1008.7
20260503021602 62 223 4.0 5.0 0.00 0.10 0.10 49 1008.7
20260503020633 63 272 0.0 0.0 0.00 0.10 0.10 49 1008.8
20260503020602 63 272 0.0 0.0 0.00 0.10 0.10 49 1008.8
20260503020104 63 272 0.0 0.0 0.00 0.10 0.10 48 1008.8
20260503015602 63 225 0.0 0.0 0.00 0.10 0.10 49 1008.7
20260503015103 63 210 0.0 0.0 0.00 0.10 0.10 48 1008.7
20260503014102 64 227 4.0 6.0 0.00 0.10 0.10 47 1008.7
20260503013602 64 271 7.0 9.0 0.00 0.10 0.10 47 1008.9
20260503013102 64 288 10.0 25.0 0.00 0.10 0.10 46 1009.0
20260503011602 65 220 10.0 10.0 0.00 0.10 0.10 44 1008.9
20260503010602 65 244 3.0 8.0 0.00 0.10 0.10 43 1008.7
20260503005102 65 289 0.0 2.0 0.00 0.10 0.10 44 1008.7
20260503004602 65 275 0.0 10.0 0.00 0.10 0.10 44 1008.8
20260503004102 65 265 7.0 8.0 0.00 0.10 0.10 44 1008.8
20260503003605 65 279 0.0 0.0 0.00 0.10 0.10 43 1008.8
20260503002602 65 327 3.0 12.0 0.00 0.10 0.10 44 1008.7
20260503002103 64 310 5.0 7.0 0.00 0.10 0.10 45 1008.7
20260503001602 65 255 7.0 10.0 0.00 0.10 0.10 45 1009.1
20260503001103 65 264 0.0 0.0 0.00 0.10 0.10 45 1009.0
20260503000605 65 282 6.0 9.0 0.00 0.10 0.10 44 1008.9
20260503000106 65 303 3.0 6.0 0.00 0.10 0.10 45 1008.7
20260502235603 65 358 0.0 8.0 0.00 0.10 0.10 45 1008.6
20260502235102 65 275 0.0 0.0 0.00 0.10 0.10 45 1008.8
20260502233106 66 2 5.0 20.0 0.00 0.10 0.10 45 1009.3
20260502232603 66 154 0.0 0.0 0.00 0.10 0.10 43 1009.2
20260502232102 66 154 0.0 0.0 0.00 0.10 0.10 43 1009.4
20260502231102 66 181 0.0 0.0 0.00 0.10 0.10 43 1009.4
20260502225602 67 167 0.0 0.0 0.00 0.10 0.10 42 1009.5
20260502224602 67 254 9.0 11.0 0.00 0.10 0.10 41 1009.6
20260502224102 67 247 0.0 0.0 0.00 0.10 0.10 41 1009.7
20260502223602 67 202 7.0 13.0 0.00 0.10 0.10 40 1009.7
20260502223122 67 213 9.0 9.0 0.00 0.10 0.10 40 1009.8
20260502222110 67 206 4.0 12.0 0.00 0.10 0.10 40 1009.9
20260502221607 67 223 7.0 13.0 0.00 0.10 0.10 40 1009.9
20260502220603 68 212 4.0 11.0 0.00 0.10 0.10 39 1010.1
20260502215603 68 215 3.0 13.0 0.00 0.10 0.10 40 1010.3
20260502215102 68 312 7.0 16.0 0.00 0.10 0.10 39 1010.2
20260502214103 68 275 5.0 13.0 0.00 0.10 0.10 39 1010.4
20260502213604 68 180 0.0 0.0 0.00 0.10 0.10 41 1010.5
20260502212602 67 171 0.0 7.0 0.00 0.10 0.10 41 1010.7
20260502212102 67 246 7.0 10.0 0.00 0.10 0.10 40 1010.8